Weather History for Hof Plauen, Germany

Change the Weather History Date:

Saturday, July 27, 2013

  Actual Average Record
Temperature  
Mean Temperature 76 °F -  
Max Temperature 91 °F 71 °F 91 °F (2013)
Min Temperature 61 °F 54 °F 46 °F (2004)
Cooling Degree Days 11    
Growing Degree Days 26 (Base 50)    
Moisture  
Dew Point 57 °F    
Average Humidity 53    
Maximum Humidity 88    
Minimum Humidity 20    
Precipitation  
Precipitation 0.00 in - - ()
Sea Level Pressure  
Sea Level Pressure 29.91 in    
Wind  
Wind Speed 3 mph ()    
Max Wind Speed 12 mph    
Max Gust Speed -    
Visibility 8.8 miles    
Events      
Averages and records for this station are not official NWS values.
T = Trace of Precipitation, MM = Missing Value Source: Averaged Metar Reports

Daily Weather History Graph

Daily Weather History Graph

Search for Another Location

Airport:

Trip Planner

Search our weather history database for the weather conditions in past years. The results will help you decide how hot, cold, wet, or windy it might be!

Date:

Astronomy

Jul. 27, 2013 Rise Set
Actual Time 5:33 AM CEST 9:03 PM CEST
Civil Twilight 4:53 AM CEST 9:43 PM CEST
Nautical Twilight 3:59 AM CEST 10:36 PM CEST
Astronomical Twilight 2:44 AM CEST 11:50 PM CEST
Moon 10:58 PM CEST (7/27) 11:37 AM CEST (7/27)
Length of Visible Light 16h 49m
Length of Day
15h 29m
Waning Gibbous, 73% of the Moon is Illuminated
Jul 27
Waning Gibbous
Jul 29
Last Quarter
Aug 6
New
Aug 14
First Quarter
Aug 21
Full

Hourly Weather History & Observations

Time (CEST) Temp. Heat Index Dew Point Humidity Pressure Visibility Wind Dir Wind Speed Gust Speed Precip Events Conditions
12:00 AM 70 °F - 59 °F 60% 29.91 in 18 mi South 2.2 mph - -   Overcast
12:20 AM 64.4 °F - 57.2 °F 77% 30.01 in 6.2 mi SSW 2.3 mph - N/A   Unknown
12:50 AM 64.4 °F - 57.2 °F 77% 30.01 in 6.2 mi Calm Calm - N/A   Unknown
1:00 AM 68 °F - 60 °F 69% 29.92 in 14 mi SSE 2.2 mph - -  
1:20 AM 64.4 °F - 57.2 °F 77% 30.01 in 6.2 mi SSW 1.2 mph - N/A   Unknown
1:50 AM 62.6 °F - 55.4 °F 77% 30.01 in 6.2 mi Calm Calm - N/A   Unknown
2:00 AM 65 °F - 59 °F 75% 29.92 in 12 mi East 2.2 mph - -   Overcast
2:20 AM 64.4 °F - 55.4 °F 73% 30.01 in 6.2 mi East 1.2 mph - N/A   Unknown
2:50 AM 62.6 °F - 55.4 °F 77% 29.98 in 6.2 mi Variable 1.2 mph - N/A   Unknown
3:00 AM 64 °F - 59 °F 79% 29.92 in 14 mi SE 2.2 mph - -  
3:20 AM 62.6 °F - 55.4 °F 77% 29.98 in 6.2 mi Variable 1.2 mph - N/A   Unknown
3:50 AM 62.6 °F - 57.2 °F 82% 29.98 in 6.2 mi Calm Calm - N/A   Unknown
4:00 AM 64 °F - 59 °F 78% 29.91 in 11 mi ESE 2.2 mph - -  
4:20 AM 59.0 °F - 55.4 °F 88% 29.98 in 6.2 mi Calm Calm - N/A   Unknown
4:50 AM 60.8 °F - 55.4 °F 82% 29.98 in 6.2 mi Calm Calm - N/A   Unknown
5:20 AM 60.8 °F - 55.4 °F 82% 29.98 in 6.2 mi Calm Calm - N/A   Unknown
5:50 AM 60.8 °F - 55.4 °F 82% 29.98 in 6.2 mi Variable 1.2 mph - N/A   Unknown
6:00 AM 62 °F - 57 °F 80% 29.92 in 19 mi SE 2.2 mph - -   Scattered Clouds
6:20 AM 60.8 °F - 57.2 °F 88% 29.98 in 6.2 mi South 3.5 mph - N/A   Unknown
6:50 AM 64.4 °F - 59.0 °F 83% 29.98 in 6.2 mi Variable 1.2 mph - N/A   Unknown
7:00 AM 65 °F - 58 °F 71% 29.91 in 17 mi SSE 2.2 mph - -   Scattered Clouds
7:20 AM 68.0 °F - 57.2 °F 68% 29.98 in 6.2 mi South 4.6 mph - N/A   Unknown
7:50 AM 69.8 °F - 57.2 °F 64% 29.98 in 6.2 mi South 3.5 mph - N/A   Unknown
8:00 AM 68 °F - 59 °F 67% 29.89 in 19 mi ESE 2.2 mph - -   Clear
8:20 AM 73.4 °F - 57.2 °F 57% 29.98 in 6.2 mi Calm Calm - N/A   Unknown
8:50 AM 75.2 °F - 60.8 °F 61% 29.98 in - ESE 3.5 mph - N/A   Clear
9:00 AM 72 °F - 59 °F 55% 29.87 in 19 mi SSE 4.5 mph - -   Scattered Clouds
9:20 AM 77.0 °F - 60.8 °F 57% 29.98 in - ESE 4.6 mph - N/A   Clear
9:50 AM 78.8 °F - 59.0 °F 51% 29.98 in - SE 6.9 mph - N/A   Clear
10:20 AM 80.6 °F 81.1 °F 59.0 °F 48% 29.98 in - SE 4.6 mph - N/A   Clear
10:50 AM 84.2 °F 83.5 °F 57.2 °F 40% 29.98 in - SSE 6.9 mph - N/A   Clear
11:20 AM 86.0 °F 84.9 °F 57.2 °F 37% 29.95 in - South 6.9 mph - N/A   Clear
11:50 AM 86.0 °F 84.2 °F 53.6 °F 33% 29.95 in - SSW 11.5 mph - N/A   Clear
12:20 PM 87.8 °F 85.7 °F 53.6 °F 31% 29.95 in - SSW 11.5 mph - N/A   Clear
12:50 PM 87.8 °F 85.7 °F 53.6 °F 31% 29.95 in - South 11.5 mph - N/A   Clear
1:00 PM 87 °F - 55 °F 24% 29.80 in 28 mi South 8.9 mph - -   Scattered Clouds
1:50 PM 89.6 °F 87.3 °F 53.6 °F 29% 29.95 in - SSW 11.5 mph - N/A   Clear
2:00 PM 89 °F - 57 °F 24% 29.78 in 25 mi SW 8.9 mph - -   Scattered Clouds
2:20 PM 89.6 °F 87.7 °F 55.4 °F 31% 29.95 in - SSW 11.5 mph - N/A   Clear
2:50 PM 89.6 °F 87.7 °F 55.4 °F 31% 29.92 in - South 11.5 mph - N/A   Clear
3:00 PM 89 °F - 56 °F 22% 29.77 in 22 mi WSW 8.9 mph - -   Scattered Clouds
3:20 PM 91.4 °F 89.4 °F 55.4 °F 29% 29.92 in - South 10.4 mph - N/A   Clear
3:50 PM 89.6 °F 87.3 °F 53.6 °F 29% 29.92 in - South 10.4 mph - N/A   Clear
4:00 PM 89 °F - 55 °F 22% 29.74 in 22 mi South 11.2 mph - -   Scattered Clouds
4:20 PM 89.6 °F 87.7 °F 55.4 °F 31% 29.89 in - SSW 9.2 mph - N/A   Clear
4:50 PM 91.4 °F 89.1 °F 53.6 °F 28% 29.89 in - SSW 9.2 mph - N/A   Clear
5:20 PM 89.6 °F 87.3 °F 53.6 °F 29% 29.89 in - Variable 5.8 mph - N/A   Clear
5:50 PM 86.0 °F 84.5 °F 55.4 °F 35% 29.89 in - South 5.8 mph - N/A   Clear
6:00 PM 89 °F - 54 °F 20% 29.73 in 25 mi SSW 6.7 mph - -   Partly Cloudy
6:20 PM 86.0 °F 84.9 °F 57.2 °F 37% 29.89 in - SW 3.5 mph - N/A   Clear
6:50 PM 89.6 °F 87.7 °F 55.4 °F 31% 29.89 in - South 5.8 mph - N/A   Clear
7:00 PM 90 °F - 56 °F 22% 29.72 in 22 mi SSW 4.5 mph - -   Scattered Clouds
7:20 PM 87.8 °F 86.5 °F 57.2 °F 35% 29.89 in 6.2 mi South 4.6 mph - N/A   Partly Cloudy
7:50 PM 87.8 °F 87.1 °F 59.0 °F 38% 29.89 in 6.2 mi Variable 2.3 mph - N/A   Unknown
8:00 PM 88 °F - 56 °F 24% 29.72 in 22 mi South 2.2 mph - -   Scattered Clouds
8:20 PM 77.0 °F - 62.6 °F 61% 29.89 in 6.2 mi Calm Calm - N/A   Unknown
8:50 PM 75.2 °F - 60.8 °F 61% 29.89 in 6.2 mi Calm Calm - N/A   Unknown
9:00 PM 84 °F - 57 °F 29% 29.73 in 22 mi SSW 2.2 mph - -   Scattered Clouds
9:20 PM 73.4 °F - 60.8 °F 65% 29.89 in 6.2 mi Calm Calm - N/A   Unknown
9:50 PM 73.4 °F - 60.8 °F 65% 29.89 in 6.2 mi South 2.3 mph - N/A   Unknown
10:00 PM 79 °F - 61 °F 43% 29.75 in 17 mi South 4.5 mph - -  
10:20 PM 75.2 °F - 59.0 °F 57% 29.89 in 6.2 mi Variable 2.3 mph - N/A   Unknown
10:50 PM 71.6 °F - 59.0 °F 64% 29.89 in 6.2 mi Calm Calm - N/A   Unknown
11:20 PM 71.6 °F - 59.0 °F 64% 29.89 in 6.2 mi Calm Calm - N/A   Unknown
11:50 PM 73.4 °F - 55.4 °F 53% 29.89 in 6.2 mi South 1.2 mph - N/A   Unknown